Time,TemperatureF,DewpointF,PressureIn,WindDirection,WindDirectionDegrees,WindSpeedMPH,WindSpeedGustMPH,Humidity,HourlyPrecipIn,Conditions,Clouds,dailyrainin,SoftwareType,DateUTC
2013-09-06 00:00:00,68.9,59.5,30.08,ESE,113,4.5,4.5,72,0.00,,,0.00,WUHU216HW,2013-09-06 05:00:00,
2013-09-06 00:05:00,68.8,59.4,30.08,SE,135,5.4,5.4,72,0.00,,,0.00,WUHU216HW,2013-09-06 05:05:00,
2013-09-06 00:06:00,68.8,59.4,30.08,SE,135,5.4,5.4,72,0.00,,,0.00,WUHU216HW,2013-09-06 05:06:00,
2013-09-06 00:10:00,68.8,59.4,30.08,SE,135,5.4,5.4,72,0.00,,,0.00,WUHU216HW,2013-09-06 05:10:00,
2013-09-06 00:30:00,68.6,59.6,30.08,SE,135,2.7,2.7,73,0.00,,,0.00,WUHU216HW,2013-09-06 05:30:00,
2013-09-06 00:31:00,68.6,59.6,30.08,SE,135,3.4,3.4,73,0.00,,,0.00,WUHU216HW,2013-09-06 05:31:00,
2013-09-06 00:32:00,68.6,59.6,30.08,SE,135,3.4,3.4,73,0.00,,,0.00,WUHU216HW,2013-09-06 05:32:00,
2013-09-06 00:35:00,68.6,59.6,30.08,SE,135,3.4,3.4,73,0.00,,,0.00,WUHU216HW,2013-09-06 05:35:00,
2013-09-06 00:36:00,68.6,59.6,30.08,SE,135,3.4,3.4,73,0.00,,,0.00,WUHU216HW,2013-09-06 05:36:00,
2013-09-06 00:37:00,68.6,59.6,30.08,SE,135,3.4,3.4,73,0.00,,,0.00,WUHU216HW,2013-09-06 05:37:00,
2013-09-06 00:40:00,68.6,59.6,30.08,SE,135,3.4,3.4,73,0.00,,,0.00,WUHU216HW,2013-09-06 05:40:00,
2013-09-06 01:00:00,68.4,59.8,30.07,SSE,158,6.9,6.9,74,0.00,,,0.00,WUHU216HW,2013-09-06 06:00:00,
2013-09-06 01:01:00,68.4,59.8,30.07,SE,138,5.5,6.9,74,0.00,,,0.00,WUHU216HW,2013-09-06 06:01:00,
2013-09-06 01:05:00,68.4,59.8,30.07,ESE,113,4.3,6.9,74,0.00,,,0.00,WUHU216HW,2013-09-06 06:05:00,
2013-09-06 01:06:00,68.4,59.8,30.07,ESE,113,4.3,6.9,74,0.00,,,0.00,WUHU216HW,2013-09-06 06:06:00,
2013-09-06 01:07:00,68.4,59.8,30.07,ESE,113,4.3,6.9,74,0.00,,,0.00,WUHU216HW,2013-09-06 06:07:00,
2013-09-06 01:10:00,68.4,59.8,30.07,ESE,113,4.3,5.4,74,0.00,,,0.00,WUHU216HW,2013-09-06 06:10:00,
2013-09-06 01:30:00,68.0,59.9,30.08,SE,135,3.8,3.8,75,0.00,,,0.00,WUHU216HW,2013-09-06 06:30:00,
2013-09-06 01:31:00,68.0,59.9,30.08,SE,135,3.8,3.8,75,0.00,,,0.00,WUHU216HW,2013-09-06 06:31:00,
2013-09-06 01:32:00,68.0,59.9,30.08,SE,135,3.8,3.8,75,0.00,,,0.00,WUHU216HW,2013-09-06 06:32:00,
2013-09-06 01:35:00,68.0,59.9,30.08,SE,135,3.8,3.8,75,0.00,,,0.00,WUHU216HW,2013-09-06 06:35:00,
2013-09-06 01:36:00,68.0,59.9,30.08,SE,135,3.8,3.8,75,0.00,,,0.00,WUHU216HW,2013-09-06 06:36:00,
2013-09-06 01:37:00,68.0,59.9,30.08,SE,135,3.8,3.8,75,0.00,,,0.00,WUHU216HW,2013-09-06 06:37:00,
2013-09-06 02:00:00,67.5,60.0,30.07,ESE,113,4.7,4.7,77,0.00,,,0.00,WUHU216HW,2013-09-06 07:00:00,
2013-09-06 02:01:00,67.5,60.0,30.07,SSE,158,4.9,4.9,77,0.00,,,0.00,WUHU216HW,2013-09-06 07:01:00,
2013-09-06 02:05:00,67.5,60.0,30.07,SSE,158,4.9,4.9,77,0.00,,,0.00,WUHU216HW,2013-09-06 07:05:00,
2013-09-06 02:06:00,67.5,60.0,30.07,SSE,158,4.9,4.9,77,0.00,,,0.00,WUHU216HW,2013-09-06 07:06:00,
2013-09-06 02:07:00,67.5,60.0,30.07,SSE,158,4.9,4.9,77,0.00,,,0.00,WUHU216HW,2013-09-06 07:07:00,
2013-09-06 02:10:00,67.5,60.0,30.07,SSE,158,4.9,4.9,77,0.00,,,0.00,WUHU216HW,2013-09-06 07:10:00,
2013-09-06 02:30:00,67.5,60.5,30.07,SE,135,2.7,2.7,78,0.00,,,0.00,WUHU216HW,2013-09-06 07:30:00,
2013-09-06 02:31:00,67.7,60.7,30.07,SSE,147,2.1,2.7,78,0.00,,,0.00,WUHU216HW,2013-09-06 07:31:00,
2013-09-06 02:35:00,67.7,60.7,30.07,South,180,1.8,2.7,78,0.00,,,0.00,WUHU216HW,2013-09-06 07:35:00,
2013-09-06 02:36:00,67.7,60.7,30.07,South,180,1.8,2.7,78,0.00,,,0.00,WUHU216HW,2013-09-06 07:36:00,
2013-09-06 02:40:00,67.7,60.7,30.07,South,180,1.8,1.8,78,0.00,,,0.00,WUHU216HW,2013-09-06 07:40:00,
2013-09-06 03:00:00,67.3,61.0,30.07,SE,135,2.2,2.2,80,0.00,,,0.00,WUHU216HW,2013-09-06 08:00:00,
2013-09-06 03:01:00,67.3,61.0,30.07,ESE,113,2.7,2.7,80,0.00,,,0.00,WUHU216HW,2013-09-06 08:01:00,
2013-09-06 03:05:00,67.3,61.0,30.07,ESE,113,2.7,2.7,80,0.00,,,0.00,WUHU216HW,2013-09-06 08:05:00,
2013-09-06 03:06:00,67.3,61.0,30.07,ESE,113,2.7,2.7,80,0.00,,,0.00,WUHU216HW,2013-09-06 08:06:00,
2013-09-06 03:07:00,67.3,61.0,30.07,ESE,113,2.7,2.7,80,0.00,,,0.00,WUHU216HW,2013-09-06 08:07:00,
2013-09-06 03:10:00,67.3,61.0,30.07,ESE,113,2.7,2.7,80,0.00,,,0.00,WUHU216HW,2013-09-06 08:10:00,
2013-09-06 03:30:00,67.3,61.4,30.07,SSE,158,2.0,2.0,81,0.00,,,0.00,WUHU216HW,2013-09-06 08:30:00,
2013-09-06 03:31:00,67.3,61.4,30.07,SSE,149,2.0,2.2,81,0.00,,,0.00,WUHU216HW,2013-09-06 08:31:00,
2013-09-06 03:32:00,67.3,61.4,30.07,SSE,149,2.0,2.2,81,0.00,,,0.00,WUHU216HW,2013-09-06 08:32:00,
2013-09-06 03:35:00,67.3,61.4,30.07,SSE,158,1.8,2.2,81,0.00,,,0.00,WUHU216HW,2013-09-06 08:35:00,
2013-09-06 03:36:00,67.3,61.4,30.07,SSE,158,1.8,2.2,81,0.00,,,0.00,WUHU216HW,2013-09-06 08:36:00,
2013-09-06 03:37:00,67.3,61.4,30.07,SSE,158,1.8,2.2,81,0.00,,,0.00,WUHU216HW,2013-09-06 08:37:00,
2013-09-06 03:40:00,67.3,61.4,30.07,SSE,158,1.8,2.2,81,0.00,,,0.00,WUHU216HW,2013-09-06 08:40:00,
2013-09-06 04:00:00,67.7,61.8,30.06,SE,135,4.5,4.5,81,0.00,,,0.00,WUHU216HW,2013-09-06 09:00:00,
2013-09-06 04:02:00,67.7,61.8,30.06,SSE,158,3.4,4.5,81,0.00,,,0.00,WUHU216HW,2013-09-06 09:02:00,
2013-09-06 04:05:00,67.7,61.8,30.06,SSE,158,3.4,4.5,81,0.00,,,0.00,WUHU216HW,2013-09-06 09:05:00,
2013-09-06 04:07:00,67.7,61.8,30.06,SSE,158,3.4,4.5,81,0.00,,,0.00,WUHU216HW,2013-09-06 09:07:00,
2013-09-06 04:30:00,68.0,62.1,30.05,SSE,158,4.7,4.7,81,0.00,,,0.00,WUHU216HW,2013-09-06 09:30:00,
2013-09-06 04:31:00,68.0,62.1,30.05,SSE,147,3.0,4.7,81,0.00,,,0.00,WUHU216HW,2013-09-06 09:31:00,
2013-09-06 04:35:00,68.0,62.1,30.05,SE,135,2.2,4.7,81,0.00,,,0.00,WUHU216HW,2013-09-06 09:35:00,
2013-09-06 04:36:00,68.0,62.1,30.05,SE,135,2.2,4.7,81,0.00,,,0.00,WUHU216HW,2013-09-06 09:36:00,
2013-09-06 04:40:00,68.0,62.1,30.05,SE,135,2.2,2.2,81,0.00,,,0.00,WUHU216HW,2013-09-06 09:40:00,
2013-09-06 05:00:00,68.0,62.4,30.06,SSE,158,0.4,0.4,82,0.00,,,0.00,WUHU216HW,2013-09-06 10:00:00,
2013-09-06 05:05:00,68.0,62.1,30.06,South,180,0.4,0.4,81,0.00,,,0.00,WUHU216HW,2013-09-06 10:05:00,
2013-09-06 05:10:00,68.0,62.1,30.06,South,180,0.4,0.4,81,0.00,,,0.00,WUHU216HW,2013-09-06 10:10:00,
2013-09-06 05:30:00,68.0,62.4,30.05,SE,135,0.7,0.7,82,0.00,,,0.00,WUHU216HW,2013-09-06 10:30:00,
2013-09-06 05:31:00,68.0,62.4,30.05,SSE,158,0.9,0.9,82,0.00,,,0.00,WUHU216HW,2013-09-06 10:31:00,
2013-09-06 05:35:00,68.0,62.4,30.05,SSE,158,0.9,0.9,82,0.00,,,0.00,WUHU216HW,2013-09-06 10:35:00,
2013-09-06 05:36:00,68.0,62.4,30.05,SSE,158,0.9,0.9,82,0.00,,,0.00,WUHU216HW,2013-09-06 10:36:00,
2013-09-06 05:37:00,68.0,62.4,30.05,SSE,158,0.9,0.9,82,0.00,,,0.00,WUHU216HW,2013-09-06 10:37:00,
2013-09-06 05:40:00,68.0,62.4,30.05,SSE,158,0.9,0.9,82,0.00,,,0.00,WUHU216HW,2013-09-06 10:40:00,
2013-09-06 06:00:00,68.2,62.6,30.04,SSE,158,2.5,2.5,82,0.00,,,0.00,WUHU216HW,2013-09-06 11:00:00,
2013-09-06 06:01:00,68.2,62.6,30.04,South,180,3.1,3.1,82,0.00,,,0.00,WUHU216HW,2013-09-06 11:01:00,
2013-09-06 06:05:00,68.2,62.6,30.04,South,180,3.1,3.1,82,0.00,,,0.00,WUHU216HW,2013-09-06 11:05:00,
2013-09-06 06:06:00,68.2,62.6,30.04,South,180,3.1,3.1,82,0.00,,,0.00,WUHU216HW,2013-09-06 11:06:00,
2013-09-06 06:07:00,68.2,62.6,30.04,South,180,3.1,3.1,82,0.00,,,0.00,WUHU216HW,2013-09-06 11:07:00,
2013-09-06 06:10:00,68.2,62.6,30.04,South,180,3.1,3.1,82,0.00,,,0.00,WUHU216HW,2013-09-06 11:10:00,
2013-09-06 06:30:00,68.4,62.7,30.04,SE,135,4.0,4.0,82,0.00,,,0.00,WUHU216HW,2013-09-06 11:30:00,
2013-09-06 06:31:00,68.4,62.7,30.04,East,80,3.3,4.0,82,0.00,,,0.00,WUHU216HW,2013-09-06 11:31:00,
2013-09-06 06:35:00,68.4,62.7,30.04,NE,45,2.9,4.0,82,0.00,,,0.00,WUHU216HW,2013-09-06 11:35:00,
2013-09-06 06:36:00,68.4,62.7,30.04,NE,45,2.9,4.0,82,0.00,,,0.00,WUHU216HW,2013-09-06 11:36:00,
2013-09-06 06:40:00,68.4,62.7,30.04,NE,45,2.9,2.9,82,0.00,,,0.00,WUHU216HW,2013-09-06 11:40:00,
2013-09-06 07:00:00,68.8,63.1,30.03,SSE,158,2.0,2.0,82,0.00,,,0.00,WUHU216HW,2013-09-06 12:00:00,
2013-09-06 07:05:00,68.8,63.1,30.03,SE,135,4.5,4.5,82,0.00,,,0.00,WUHU216HW,2013-09-06 12:05:00,
2013-09-06 07:06:00,68.8,63.1,30.03,SE,135,4.5,4.5,82,0.00,,,0.00,WUHU216HW,2013-09-06 12:06:00,
2013-09-06 07:10:00,68.8,63.1,30.03,SE,135,4.5,4.5,82,0.00,,,0.00,WUHU216HW,2013-09-06 12:10:00,
2013-09-06 07:30:00,69.8,64.1,30.02,ESE,113,4.0,4.0,82,0.00,,,0.00,WUHU216HW,2013-09-06 12:30:00,
2013-09-06 07:31:00,69.8,63.7,30.02,SSE,157,3.7,4.0,81,0.00,,,0.00,WUHU216HW,2013-09-06 12:31:00,
2013-09-06 07:35:00,69.8,63.7,30.02,South,180,3.6,4.0,81,0.00,,,0.00,WUHU216HW,2013-09-06 12:35:00,
2013-09-06 07:36:00,69.8,63.7,30.02,South,180,3.6,4.0,81,0.00,,,0.00,WUHU216HW,2013-09-06 12:36:00,
2013-09-06 07:40:00,69.8,63.7,30.02,South,180,3.6,3.6,81,0.00,,,0.00,WUHU216HW,2013-09-06 12:40:00,
2013-09-06 08:00:00,71.5,64.3,30.02,SE,135,2.7,2.7,78,0.00,,,0.00,WUHU216HW,2013-09-06 13:00:00,
2013-09-06 08:05:00,71.6,64.5,30.02,South,180,4.5,4.5,78,0.00,,,0.00,WUHU216HW,2013-09-06 13:05:00,
2013-09-06 08:06:00,71.6,64.5,30.02,South,180,4.5,4.5,78,0.00,,,0.00,WUHU216HW,2013-09-06 13:06:00,
2013-09-06 08:10:00,71.6,64.5,30.02,South,180,4.5,4.5,78,0.00,,,0.00,WUHU216HW,2013-09-06 13:10:00,
2013-09-06 08:30:00,73.8,65.4,30.00,South,180,6.5,6.5,75,0.00,,,0.00,WUHU216HW,2013-09-06 13:30:00,
2013-09-06 08:31:00,73.8,65.4,30.00,South,180,6.5,6.5,75,0.00,,,0.00,WUHU216HW,2013-09-06 13:31:00,
2013-09-06 08:35:00,73.8,65.4,30.00,South,180,6.5,6.5,75,0.00,,,0.00,WUHU216HW,2013-09-06 13:35:00,
2013-09-06 08:36:00,73.8,65.4,30.00,South,180,6.5,6.5,75,0.00,,,0.00,WUHU216HW,2013-09-06 13:36:00,
2013-09-06 08:37:00,73.8,65.4,30.00,South,180,6.5,6.5,75,0.00,,,0.00,WUHU216HW,2013-09-06 13:37:00,
2013-09-06 09:00:00,75.2,66.0,30.00,SE,135,7.6,7.6,73,0.00,,,0.00,WUHU216HW,2013-09-06 14:00:00,
2013-09-06 09:01:00,75.2,66.0,30.00,SE,145,6.6,7.6,73,0.00,,,0.00,WUHU216HW,2013-09-06 14:01:00,
2013-09-06 09:05:00,75.2,66.0,30.00,South,180,4.5,7.6,73,0.00,,,0.00,WUHU216HW,2013-09-06 14:05:00,
2013-09-06 09:06:00,75.2,66.0,30.00,South,180,4.5,7.6,73,0.00,,,0.00,WUHU216HW,2013-09-06 14:06:00,
2013-09-06 09:07:00,75.2,66.0,30.00,South,180,4.5,7.6,73,0.00,,,0.00,WUHU216HW,2013-09-06 14:07:00,
2013-09-06 09:10:00,75.2,66.0,30.00,South,180,4.5,7.6,73,0.00,,,0.00,WUHU216HW,2013-09-06 14:10:00,
2013-09-06 09:30:00,76.7,66.6,30.00,SE,135,5.1,5.1,71,0.00,,,0.00,WUHU216HW,2013-09-06 14:30:00,
2013-09-06 09:33:00,76.5,66.4,30.00,SE,135,3.1,5.1,71,0.00,,,0.00,WUHU216HW,2013-09-06 14:33:00,
2013-09-06 09:35:00,76.5,66.4,30.00,SE,135,3.1,5.1,71,0.00,,,0.00,WUHU216HW,2013-09-06 14:35:00,
2013-09-06 09:36:00,76.5,66.4,30.00,SE,135,3.1,5.1,71,0.00,,,0.00,WUHU216HW,2013-09-06 14:36:00,
2013-09-06 09:38:00,76.5,66.4,30.00,SE,135,3.1,5.1,71,0.00,,,0.00,WUHU216HW,2013-09-06 14:38:00,
2013-09-06 10:00:00,80.3,68.3,29.99,SSE,158,4.5,4.5,67,0.00,,,0.00,WUHU216HW,2013-09-06 15:00:00,
2013-09-06 10:01:00,80.3,68.3,29.99,South,169,4.1,4.5,67,0.00,,,0.00,WUHU216HW,2013-09-06 15:01:00,
2013-09-06 10:05:00,80.3,68.3,29.99,SSW,203,3.4,4.5,67,0.00,,,0.00,WUHU216HW,2013-09-06 15:05:00,
2013-09-06 10:06:00,80.3,68.3,29.99,SSW,203,3.4,4.5,67,0.00,,,0.00,WUHU216HW,2013-09-06 15:06:00,
2013-09-06 10:07:00,80.3,68.3,29.99,SSW,203,3.4,4.5,67,0.00,,,0.00,WUHU216HW,2013-09-06 15:07:00,
2013-09-06 10:30:00,83.0,67.1,29.99,SW,225,3.8,3.8,59,0.00,,,0.00,WUHU216HW,2013-09-06 15:30:00,
2013-09-06 10:31:00,83.0,68.1,29.99,West,270,5.4,5.4,61,0.00,,,0.00,WUHU216HW,2013-09-06 15:31:00,
2013-09-06 10:35:00,83.0,68.1,29.99,West,270,5.4,5.4,61,0.00,,,0.00,WUHU216HW,2013-09-06 15:35:00,
2013-09-06 10:36:00,83.0,68.1,29.99,West,270,5.4,5.4,61,0.00,,,0.00,WUHU216HW,2013-09-06 15:36:00,
2013-09-06 10:40:00,83.0,68.1,29.99,West,270,5.4,5.4,61,0.00,,,0.00,WUHU216HW,2013-09-06 15:40:00,
2013-09-06 11:00:00,82.8,64.9,29.98,WSW,248,9.8,9.8,55,0.00,,,0.00,WUHU216HW,2013-09-06 16:00:00,
2013-09-06 11:05:00,82.8,64.9,29.98,SSW,203,6.3,9.8,55,0.00,,,0.00,WUHU216HW,2013-09-06 16:05:00,
2013-09-06 11:06:00,82.8,64.9,29.98,SSW,203,6.3,9.8,55,0.00,,,0.00,WUHU216HW,2013-09-06 16:06:00,
2013-09-06 11:10:00,82.8,64.9,29.98,SSW,203,6.3,9.4,55,0.00,,,0.00,WUHU216HW,2013-09-06 16:10:00,
2013-09-06 11:30:00,83.7,64.7,29.97,South,180,12.1,12.1,53,0.00,,,0.00,WUHU216HW,2013-09-06 16:30:00,
2013-09-06 11:31:00,83.7,64.7,29.97,SSW,192,8.6,12.1,53,0.00,,,0.00,WUHU216HW,2013-09-06 16:31:00,
2013-09-06 11:35:00,83.7,64.7,29.97,SSW,203,6.9,12.1,53,0.00,,,0.00,WUHU216HW,2013-09-06 16:35:00,
2013-09-06 11:36:00,83.7,64.7,29.97,SSW,203,6.9,12.1,53,0.00,,,0.00,WUHU216HW,2013-09-06 16:36:00,
2013-09-06 11:37:00,83.7,64.7,29.97,SSW,203,6.9,12.1,53,0.00,,,0.00,WUHU216HW,2013-09-06 16:37:00,
2013-09-06 11:40:00,83.7,64.7,29.97,SSW,203,6.9,6.9,53,0.00,,,0.00,WUHU216HW,2013-09-06 16:40:00,
2013-09-06 12:00:00,85.3,64.1,29.96,SSW,203,11.4,11.4,49,0.00,,,0.00,WUHU216HW,2013-09-06 17:00:00,
2013-09-06 12:01:00,85.3,64.1,29.96,SSW,203,10.3,11.4,49,0.00,,,0.00,WUHU216HW,2013-09-06 17:01:00,
2013-09-06 12:05:00,85.3,64.1,29.96,SSW,203,8.1,11.4,49,0.00,,,0.00,WUHU216HW,2013-09-06 17:05:00,
2013-09-06 12:07:00,85.3,64.1,29.96,SSW,203,8.1,11.4,49,0.00,,,0.00,WUHU216HW,2013-09-06 17:07:00,
2013-09-06 12:30:00,86.4,65.1,29.95,SW,225,9.2,9.2,49,0.00,,,0.00,WUHU216HW,2013-09-06 17:30:00,
2013-09-06 12:31:00,86.4,65.1,29.95,SW,216,7.8,9.2,49,0.00,,,0.00,WUHU216HW,2013-09-06 17:31:00,
2013-09-06 12:35:00,86.4,65.1,29.95,South,180,4.9,9.2,49,0.00,,,0.00,WUHU216HW,2013-09-06 17:35:00,
2013-09-06 12:36:00,86.4,65.1,29.95,South,180,4.9,9.2,49,0.00,,,0.00,WUHU216HW,2013-09-06 17:36:00,
2013-09-06 12:40:00,86.4,65.1,29.95,South,180,4.9,9.2,49,0.00,,,0.00,WUHU216HW,2013-09-06 17:40:00,
2013-09-06 13:00:00,87.5,64.7,29.94,SSW,203,9.2,9.2,47,0.00,,,0.00,WUHU216HW,2013-09-06 18:00:00,
2013-09-06 13:05:00,87.3,64.6,29.94,SSE,158,7.6,9.2,47,0.00,,,0.00,WUHU216HW,2013-09-06 18:05:00,
2013-09-06 13:06:00,87.3,64.6,29.94,SSE,158,7.6,9.2,47,0.00,,,0.00,WUHU216HW,2013-09-06 18:06:00,
2013-09-06 13:07:00,87.3,64.6,29.94,SSE,158,7.6,9.2,47,0.00,,,0.00,WUHU216HW,2013-09-06 18:07:00,
2013-09-06 13:10:00,87.3,64.6,29.94,SSE,158,7.6,9.2,47,0.00,,,0.00,WUHU216HW,2013-09-06 18:10:00,
2013-09-06 13:30:00,88.7,64.6,29.93,SSW,203,10.3,10.3,45,0.00,,,0.00,WUHU216HW,2013-09-06 18:30:00,
2013-09-06 13:31:00,88.6,64.5,29.93,SW,225,12.1,12.1,45,0.00,,,0.00,WUHU216HW,2013-09-06 18:31:00,
2013-09-06 13:35:00,88.6,64.5,29.93,SW,225,12.1,12.1,45,0.00,,,0.00,WUHU216HW,2013-09-06 18:35:00,
2013-09-06 13:36:00,88.6,64.5,29.93,SW,225,12.1,12.1,45,0.00,,,0.00,WUHU216HW,2013-09-06 18:36:00,
2013-09-06 13:37:00,88.6,64.5,29.93,SW,225,12.1,12.1,45,0.00,,,0.00,WUHU216HW,2013-09-06 18:37:00,
2013-09-06 13:40:00,88.6,64.5,29.93,SW,225,12.1,12.1,45,0.00,,,0.00,WUHU216HW,2013-09-06 18:40:00,
2013-09-06 14:00:00,89.5,65.2,29.92,SSE,158,5.4,5.4,45,0.00,,,0.00,WUHU216HW,2013-09-06 19:00:00,
2013-09-06 14:01:00,89.5,65.2,29.92,SE,135,6.7,6.7,45,0.00,,,0.00,WUHU216HW,2013-09-06 19:01:00,
2013-09-06 14:05:00,89.5,65.2,29.92,SE,135,6.7,6.7,45,0.00,,,0.00,WUHU216HW,2013-09-06 19:05:00,
2013-09-06 14:06:00,89.5,65.2,29.92,SE,135,6.7,6.7,45,0.00,,,0.00,WUHU216HW,2013-09-06 19:06:00,
2013-09-06 14:30:00,88.9,64.7,29.91,SSE,158,8.7,8.7,45,0.00,,,0.00,WUHU216HW,2013-09-06 19:30:00,
2013-09-06 14:31:00,88.7,64.6,29.91,South,173,7.4,8.7,45,0.00,,,0.00,WUHU216HW,2013-09-06 19:31:00,
2013-09-06 14:35:00,88.7,64.6,29.91,WSW,248,4.9,8.7,45,0.00,,,0.00,WUHU216HW,2013-09-06 19:35:00,
2013-09-06 14:36:00,88.7,64.6,29.91,WSW,248,4.9,8.7,45,0.00,,,0.00,WUHU216HW,2013-09-06 19:36:00,
2013-09-06 14:40:00,88.7,64.6,29.91,WSW,248,4.9,8.7,45,0.00,,,0.00,WUHU216HW,2013-09-06 19:40:00,
2013-09-06 15:00:00,90.0,64.4,29.90,SW,225,7.4,7.4,43,0.00,,,0.00,WUHU216HW,2013-09-06 20:00:00,
2013-09-06 15:05:00,89.8,64.2,29.90,SW,225,5.6,8.1,43,0.00,,,0.00,WUHU216HW,2013-09-06 20:05:00,
2013-09-06 15:10:00,89.8,64.2,29.90,SW,225,5.6,8.1,43,0.00,,,0.00,WUHU216HW,2013-09-06 20:10:00,
2013-09-06 15:30:00,89.1,64.9,29.89,NE,45,3.4,3.4,45,0.00,,,0.00,WUHU216HW,2013-09-06 20:30:00,
2013-09-06 15:31:00,89.1,64.9,29.89,ENE,57,3.1,3.4,45,0.00,,,0.00,WUHU216HW,2013-09-06 20:31:00,
2013-09-06 15:35:00,89.1,64.9,29.89,East,90,2.5,3.4,45,0.00,,,0.00,WUHU216HW,2013-09-06 20:35:00,
2013-09-06 15:36:00,89.1,64.9,29.89,East,90,2.5,3.4,45,0.00,,,0.00,WUHU216HW,2013-09-06 20:36:00,
2013-09-06 15:37:00,89.1,64.9,29.89,East,90,2.5,3.4,45,0.00,,,0.00,WUHU216HW,2013-09-06 20:37:00,
2013-09-06 15:40:00,89.1,64.9,29.89,East,90,2.5,3.4,45,0.00,,,0.00,WUHU216HW,2013-09-06 20:40:00,
2013-09-06 16:00:00,90.7,65.0,29.88,East,90,3.8,3.8,43,0.00,,,0.00,WUHU216HW,2013-09-06 21:00:00,
2013-09-06 16:05:00,90.7,65.0,29.88,ENE,68,3.1,3.8,43,0.00,,,0.00,WUHU216HW,2013-09-06 21:05:00,
2013-09-06 16:06:00,90.7,65.0,29.88,ENE,68,3.1,3.8,43,0.00,,,0.00,WUHU216HW,2013-09-06 21:06:00,
2013-09-06 16:10:00,90.7,65.0,29.88,ENE,68,3.1,3.8,43,0.00,,,0.00,WUHU216HW,2013-09-06 21:10:00,
2013-09-06 16:30:00,90.7,65.7,29.87,SSE,158,7.4,7.4,44,0.00,,,0.00,WUHU216HW,2013-09-06 21:30:00,
2013-09-06 16:33:00,90.9,65.8,29.87,SE,135,9.8,9.8,44,0.00,,,0.00,WUHU216HW,2013-09-06 21:33:00,
2013-09-06 16:35:00,90.9,65.8,29.87,SE,135,9.8,9.8,44,0.00,,,0.00,WUHU216HW,2013-09-06 21:35:00,
2013-09-06 16:36:00,90.9,65.8,29.87,SE,135,9.8,9.8,44,0.00,,,0.00,WUHU216HW,2013-09-06 21:36:00,
2013-09-06 16:38:00,90.9,65.8,29.87,SE,135,9.8,9.8,44,0.00,,,0.00,WUHU216HW,2013-09-06 21:38:00,
2013-09-06 16:40:00,90.9,65.8,29.87,SE,135,9.8,9.8,44,0.00,,,0.00,WUHU216HW,2013-09-06 21:40:00,
2013-09-06 17:30:00,90.7,67.0,29.86,SE,135,3.1,3.1,46,0.00,,,0.00,WUHU216HW,2013-09-06 22:30:00,
2013-09-06 17:35:00,90.7,67.0,29.86,ESE,113,2.0,3.1,46,0.00,,,0.00,WUHU216HW,2013-09-06 22:35:00,
2013-09-06 17:37:00,90.7,67.0,29.86,ESE,113,2.0,3.1,46,0.00,,,0.00,WUHU216HW,2013-09-06 22:37:00,
2013-09-06 17:40:00,90.7,67.0,29.86,ESE,113,2.0,3.1,46,0.00,,,0.00,WUHU216HW,2013-09-06 22:40:00,
2013-09-06 18:00:00,91.1,66.6,29.86,SSW,203,7.6,7.6,45,0.00,,,0.00,WUHU216HW,2013-09-06 23:00:00,
2013-09-06 18:05:00,91.1,67.3,29.86,SSE,158,5.8,7.6,46,0.00,,,0.00,WUHU216HW,2013-09-06 23:05:00,
2013-09-06 18:06:00,91.1,67.3,29.86,SSE,158,5.8,7.6,46,0.00,,,0.00,WUHU216HW,2013-09-06 23:06:00,
2013-09-06 18:07:00,91.1,67.3,29.86,SSE,158,5.8,7.6,46,0.00,,,0.00,WUHU216HW,2013-09-06 23:07:00,
2013-09-06 18:10:00,91.1,67.3,29.86,SSE,158,5.8,5.8,46,0.00,,,0.00,WUHU216HW,2013-09-06 23:10:00,
2013-09-06 18:30:00,90.0,67.0,29.86,SE,135,2.5,2.5,47,0.00,,,0.00,WUHU216HW,2013-09-06 23:30:00,
2013-09-06 18:31:00,90.0,67.6,29.86,SE,142,1.8,2.5,48,0.00,,,0.00,WUHU216HW,2013-09-06 23:31:00,
2013-09-06 18:35:00,90.0,67.6,29.86,SSE,158,1.1,2.5,48,0.00,,,0.00,WUHU216HW,2013-09-06 23:35:00,
2013-09-06 18:36:00,90.0,67.6,29.86,SSE,158,1.1,2.5,48,0.00,,,0.00,WUHU216HW,2013-09-06 23:36:00,
2013-09-06 18:40:00,90.0,67.6,29.86,SSE,158,1.1,2.5,48,0.00,,,0.00,WUHU216HW,2013-09-06 23:40:00,
2013-09-06 19:00:00,87.1,66.9,29.86,South,180,3.4,3.4,51,0.00,,,0.00,WUHU216HW,2013-09-07 00:00:00,
2013-09-06 19:05:00,87.1,66.9,29.86,SSW,203,2.9,3.4,51,0.00,,,0.00,WUHU216HW,2013-09-07 00:05:00,
2013-09-06 19:10:00,87.1,66.9,29.86,SSW,203,2.9,3.4,51,0.00,,,0.00,WUHU216HW,2013-09-07 00:10:00,
2013-09-06 19:30:00,85.7,67.2,29.86,SSE,158,2.7,2.7,54,0.00,,,0.00,WUHU216HW,2013-09-07 00:30:00,
2013-09-06 19:31:00,85.7,67.2,29.86,SSW,203,2.9,2.9,54,0.00,,,0.00,WUHU216HW,2013-09-07 00:31:00,
2013-09-06 19:35:00,85.7,67.2,29.86,SSW,203,2.9,2.9,54,0.00,,,0.00,WUHU216HW,2013-09-07 00:35:00,
2013-09-06 19:36:00,85.7,67.2,29.86,SSW,203,2.9,2.9,54,0.00,,,0.00,WUHU216HW,2013-09-07 00:36:00,
2013-09-06 20:00:00,83.9,67.1,29.85,SE,135,1.1,1.1,57,0.00,,,0.00,WUHU216HW,2013-09-07 01:00:00,
2013-09-06 20:05:00,83.7,67.3,29.85,SE,135,1.3,1.6,58,0.00,,,0.00,WUHU216HW,2013-09-07 01:05:00,
2013-09-06 20:06:00,83.7,67.3,29.85,SE,135,1.3,1.6,58,0.00,,,0.00,WUHU216HW,2013-09-07 01:06:00,
2013-09-06 20:10:00,83.7,67.3,29.85,SE,135,1.3,1.6,58,0.00,,,0.00,WUHU216HW,2013-09-07 01:10:00,
2013-09-06 20:30:00,82.1,66.3,29.85,SSW,203,2.0,2.0,59,0.00,,,0.00,WUHU216HW,2013-09-07 01:30:00,
2013-09-06 20:31:00,82.1,66.3,29.85,SE,135,1.3,2.0,59,0.00,,,0.00,WUHU216HW,2013-09-07 01:31:00,
2013-09-06 20:33:00,82.1,66.3,29.85,SE,135,1.3,2.0,59,0.00,,,0.00,WUHU216HW,2013-09-07 01:33:00,
2013-09-06 20:35:00,82.1,66.3,29.85,SE,135,1.3,2.0,59,0.00,,,0.00,WUHU216HW,2013-09-07 01:35:00,
2013-09-06 20:36:00,82.1,66.3,29.85,SE,135,1.3,2.0,59,0.00,,,0.00,WUHU216HW,2013-09-07 01:36:00,
2013-09-06 20:37:00,82.1,66.3,29.85,SE,135,1.3,2.0,59,0.00,,,0.00,WUHU216HW,2013-09-07 01:37:00,
2013-09-06 20:38:00,82.1,66.3,29.85,SE,135,1.3,2.0,59,0.00,,,0.00,WUHU216HW,2013-09-07 01:38:00,
2013-09-06 20:40:00,82.1,66.3,29.85,SE,135,1.3,1.3,59,0.00,,,0.00,WUHU216HW,2013-09-07 01:40:00,
2013-09-06 21:00:00,80.8,66.2,29.86,SE,135,2.0,2.0,61,0.00,,,0.00,WUHU216HW,2013-09-07 02:00:00,
2013-09-06 21:05:00,80.6,66.0,29.86,SE,135,2.0,2.0,61,0.00,,,0.00,WUHU216HW,2013-09-07 02:05:00,
2013-09-06 21:06:00,80.6,66.0,29.86,SE,135,2.0,2.0,61,0.00,,,0.00,WUHU216HW,2013-09-07 02:06:00,
2013-09-06 21:10:00,80.6,66.0,29.86,SE,135,2.0,2.0,61,0.00,,,0.00,WUHU216HW,2013-09-07 02:10:00,
2013-09-06 21:30:00,79.6,65.9,29.86,ESE,113,1.3,1.3,63,0.00,,,0.00,WUHU216HW,2013-09-07 02:30:00,
2013-09-06 21:31:00,79.4,65.7,29.86,ESE,113,1.3,1.3,63,0.00,,,0.00,WUHU216HW,2013-09-07 02:31:00,
2013-09-06 21:35:00,79.4,65.7,29.86,ESE,113,1.3,1.3,63,0.00,,,0.00,WUHU216HW,2013-09-07 02:35:00,
2013-09-06 21:36:00,79.4,65.7,29.86,ESE,113,1.3,1.3,63,0.00,,,0.00,WUHU216HW,2013-09-07 02:36:00,
2013-09-06 21:40:00,79.4,65.7,29.86,ESE,113,1.3,1.3,63,0.00,,,0.00,WUHU216HW,2013-09-07 02:40:00,
2013-09-06 22:00:00,78.7,65.4,29.86,SSE,158,0.4,0.4,64,0.00,,,0.00,WUHU216HW,2013-09-07 03:00:00,
2013-09-06 22:01:00,78.7,65.4,29.86,SSE,158,0.4,0.4,64,0.00,,,0.00,WUHU216HW,2013-09-07 03:01:00,
2013-09-06 22:05:00,78.7,65.4,29.86,SSE,158,0.4,0.4,64,0.00,,,0.00,WUHU216HW,2013-09-07 03:05:00,
2013-09-06 22:06:00,78.7,65.4,29.86,SSE,158,0.4,0.4,64,0.00,,,0.00,WUHU216HW,2013-09-07 03:06:00,
2013-09-06 22:10:00,78.7,65.4,29.86,SSE,158,0.4,0.4,64,0.00,,,0.00,WUHU216HW,2013-09-07 03:10:00,
2013-09-06 22:30:00,78.1,65.3,29.85,SE,135,2.5,2.5,65,0.00,,,0.00,WUHU216HW,2013-09-07 03:30:00,
2013-09-06 22:31:00,78.1,65.3,29.85,SSE,149,2.3,2.5,65,0.00,,,0.00,WUHU216HW,2013-09-07 03:31:00,
2013-09-06 22:35:00,78.1,65.3,29.85,SSE,158,2.2,2.5,65,0.00,,,0.00,WUHU216HW,2013-09-07 03:35:00,
2013-09-06 22:36:00,78.1,65.3,29.85,SSE,158,2.2,2.5,65,0.00,,,0.00,WUHU216HW,2013-09-07 03:36:00,
2013-09-06 22:40:00,78.1,65.3,29.85,SSE,158,2.2,2.2,65,0.00,,,0.00,WUHU216HW,2013-09-07 03:40:00,
2013-09-06 23:00:00,78.1,65.3,29.85,SE,135,2.7,2.7,65,0.00,,,0.00,WUHU216HW,2013-09-07 04:00:00,
2013-09-06 23:01:00,78.1,65.3,29.86,SE,135,3.4,3.4,65,0.00,,,0.00,WUHU216HW,2013-09-07 04:01:00,
2013-09-06 23:02:00,78.1,65.3,29.86,SE,135,3.4,3.4,65,0.00,,,0.00,WUHU216HW,2013-09-07 04:02:00,
2013-09-06 23:06:00,78.1,65.3,29.86,SE,135,3.4,3.4,65,0.00,,,0.00,WUHU216HW,2013-09-07 04:06:00,
2013-09-06 23:07:00,78.1,65.3,29.86,SE,135,3.4,3.4,65,0.00,,,0.00,WUHU216HW,2013-09-07 04:07:00,
2013-09-06 23:30:00,77.6,65.4,29.85,SE,135,3.6,3.6,66,0.00,,,0.00,WUHU216HW,2013-09-07 04:30:00,
2013-09-06 23:31:00,77.6,65.4,29.85,SE,135,3.0,3.6,66,0.00,,,0.00,WUHU216HW,2013-09-07 04:31:00,
2013-09-06 23:35:00,77.6,65.4,29.85,SE,135,1.8,3.6,66,0.00,,,0.00,WUHU216HW,2013-09-07 04:35:00,
2013-09-06 23:36:00,77.6,65.4,29.85,SE,135,1.8,3.6,66,0.00,,,0.00,WUHU216HW,2013-09-07 04:36:00,
2013-09-06 23:37:00,77.6,65.4,29.85,SE,135,1.8,3.6,66,0.00,,,0.00,WUHU216HW,2013-09-07 04:37:00,